Weather in Urazayevo

Russia / Republic of Tatarstan     55°45′18″N   53°56′07″E
temp.,
°C
wind,
m/s
gust,
m/s
humid.,
%
clouds,
%
prec.,
mm/h
press.,
hPa
HPBL,
m
12 may, wed
wed1200:00+17se014897 0.0 102711
03:00+15e11532 0.0 102811
06:00+18se11505 0.0 102881
09:00+23e22404 0.0 1028551
12:00+26ese23323 0.0 10282108
15:00+26se34333 0.0 10272462
18:00+22sse33470 0.0 102739
21:00+18sse22460 0.0 102711
13 may, thu
thu1300:00+16ssw33541 0.0 102723
03:00+15sw22550 0.0 102813
06:00+18sse12502 0.0 1028107
09:00+23sse333875 0.0 1028664
12:00+26s35335 0.0 10271827
15:00+26s343236 0.0 10262120
18:00+23sse2247100 0.0 102611
21:00+19sse225499 0.0 102618
14 may, fri
fri1400:00+17s22545 0.0 102616
03:00+16s22535 0.0 102619
06:00+19s365335 0.0 1026188
09:00+24ssw464114 0.0 1026644
12:00+27ssw673430 0.0 10251420
15:00+27ssw5633100 0.0 10241473
18:00+24ssw355195 0.0 102385
21:00+19ssw475599 0.0 1023107
15 may, sat
sat1500:00+18ssw4857100 0.0 1023132
03:00+16ssw365747 0.0 102384
06:00+19ssw495686 0.0 1023239
09:00+24sw6839100 0.0 1022651
12:00+28sw683078 0.0 10221366
15:00+28sw573392 0.0 10211599
18:00+24sw4651100 0.0 1020105
21:00+20sw345162 0.0 102146
16 may, sun
sun1600:00+18ssw46515 0.0 102069
03:00+17ssw34525 0.0 102138
06:00+20ssw255340 0.0 1021152
09:00+26ssw343920 0.0 1021525
12:00+29sw682947 0.0 10202904
15:00+29sw57295 0.0 10192941
18:00+25ssw344711 0.0 101872
21:00+21s454663 0.0 101850